"2010-03-27 00:00:00",1797397,5.596,306.6,4.228,0.55,4.903,100.4863,0.54,1.948,79.37,0,109.7,13.56,1.29,268.6
"2010-03-27 00:00:30",1797398,4.947,305.5,5.737,1.13,3.927,100.4857,0.539,1.802,79.3,0,109.7,13.56,1.29,267.5
"2010-03-27 00:01:00",1797399,4.987,304,6.023,1.194,3.78,100.4857,0.539,1.9,79.45,0,109.7,13.56,1.29,266.0
"2010-03-27 00:01:30",1797400,5.343,304.1,5.967,1.125,3.096,100.4857,0.539,1.778,79.38,0,109.7,13.56,1.29,266.1
"2010-03-27 00:02:00",1797401,4.992,303,6.288,1.242,2.681,100.4872,0.543,1.769,79.45,0,109.7,13.56,1.30,265.0
"2010-03-27 00:02:30",1797402,4.953,303,6.505,1.201,3.13,100.4866,0.541,1.867,79.59,0,109.7,13.56,1.30,265.0
"2010-03-27 00:03:00",1797403,5.762,307.7,5.269,1.085,4.688,100.4894,0.548,1.949,79.72,0,109.7,13.55,1.30,269.7
"2010-03-27 00:03:30",1797404,5.693,305.1,5.986,1.085,4.024,100.4891,0.548,1.866,79.68,0,109.7,13.55,1.30,267.1
"2010-03-27 00:04:00",1797405,4.805,302.2,5.83,1.086,2.419,100.4886,0.546,1.886,79.77,0,109.7,13.55,1.30,264.2
"2010-03-27 00:04:30",1797406,5.689,306.3,4.946,1.088,3.808,100.4824,0.53,1.863,79.77,0,109.7,13.55,1.28,268.3
"2010-03-27 00:05:00",1797407,4.845,301.5,6.077,1.165,2.613,100.4711,0.502,1.769,79.76,0,109.7,13.55,1.26,263.5
"2010-03-27 00:05:30",1797408,5.589,305.5,6.307,1.273,3.714,100.4617,0.478,1.904,79.97,0,109.7,13.55,1.23,267.5
"2010-03-27 00:06:00",1797409,6.131,307.6,4.917,0.997,4.74,100.462,0.478,1.878,80,0,109.7,13.55,1.23,269.6
"2010-03-27 00:06:30",1797410,5.609,304.4,5.869,1.205,3.525,100.4634,0.482,1.857,80,0,109.7,13.55,1.24,266.4
"2010-03-27 00:07:00",1797411,4.93,300.9,5.951,1.195,2.037,100.4654,0.487,1.799,80.1,0,109.7,13.55,1.24,262.9
"2010-03-27 00:07:30",1797412,5.706,304.9,5.628,1.11,3.985,100.4666,0.49,1.813,80.2,0,109.7,13.56,1.24,266.9
"2010-03-27 00:08:00",1797413,5.679,305.5,5.946,1.157,3.602,100.4547,0.46,1.753,80.2,0,109.7,13.56,1.21,267.5
"2010-03-27 00:08:30",1797414,6.344,307.4,5.449,0.971,4.697,100.4414,0.426,1.819,80.3,0,109.7,13.56,1.18,269.4
"2010-03-27 00:09:00",1797415,6.167,305.2,5.875,1.153,4.318,100.434,0.407,1.793,80.4,0,109.7,13.56,1.16,267.2
"2010-03-27 00:09:30",1797416,6.309,303.6,6.239,1.122,3.913,100.4332,0.405,1.717,80.4,0,109.7,13.56,1.16,265.6
"2010-03-27 00:10:00",1797417,6.059,299.4,5.734,1.221,2.55,100.4329,0.404,1.689,80.5,0,109.7,13.56,1.16,261.4
"2010-03-27 00:10:30",1797418,6.288,302.5,4.971,1.118,3.932,100.4216,0.375,1.761,80.7,0,109.7,13.56,1.13,264.5
"2010-03-27 00:11:00",1797419,6.016,300.4,6.359,1.162,3.592,100.4114,0.349,1.679,80.7,0,109.7,13.56,1.10,262.4
"2010-03-27 00:11:30",1797420,6.103,303.1,5.395,1.029,4.523,100.4006,0.322,1.726,80.9,0,109.7,13.56,1.08,265.1
"2010-03-27 00:12:00",1797421,5.774,299.2,6.132,1.187,3.517,100.4012,0.323,1.647,81,0,109.7,13.56,1.08,261.2
"2010-03-27 00:12:30",1797422,5.88,297.7,6.339,1.166,3.731,100.3984,0.316,1.675,81.1,0,109.7,13.56,1.07,259.7
"2010-03-27 00:13:00",1797423,5.654,296.4,6.139,1.241,3.462,100.3803,0.27,1.667,81.2,0,109.7,13.56,1.02,258.4
"2010-03-27 00:13:30",1797424,5.961,297.6,6.219,1.102,3.667,100.3687,0.24,1.596,81.3,0,109.7,13.56,0.99,259.6
"2010-03-27 00:14:00",1797425,6.354,301.4,5.864,1.018,3.936,100.3698,0.243,1.621,81.4,0,109.7,13.56,1.00,263.4
"2010-03-27 00:14:30",1797426,6.783,302.2,4.548,0.895,4.917,100.3701,0.244,1.632,81.5,0,109.7,13.56,1.00,264.2
"2010-03-27 00:15:00",1797427,5.771,297.8,5.989,1.22,2.633,100.3625,0.225,1.515,81.5,0,109.7,13.56,0.98,259.8
"2010-03-27 00:15:30",1797428,6.255,298.8,6.511,1.304,3.296,100.3514,0.196,1.566,81.7,0,109.7,13.56,0.95,260.8
"2010-03-27 00:16:00",1797429,7.156,300,5.492,1.062,4.22,100.3407,0.169,1.547,81.8,0,109.7,13.56,0.92,262.0
"2010-03-27 00:16:30",1797430,7.032,301.5,4.914,0.751,4.986,100.3381,0.163,1.609,82,0,109.7,13.56,0.92,263.5
"2010-03-27 00:17:00",1797431,6.396,297.2,6.143,1.145,4.317,100.3376,0.161,1.458,82,0,109.7,13.56,0.91,259.2
"2010-03-27 00:17:30",1797432,6.134,298.2,5.299,1.094,4.509,100.3217,0.121,1.571,82.3,0,109.7,13.56,0.87,260.2
"2010-03-27 00:18:00",1797433,5.498,292.2,6.886,1.165,2.686,100.3079,0.085,1.324,82.1,0,109.7,13.56,0.84,254.2
"2010-03-27 00:18:30",1797434,5.804,294.8,5.696,1.195,3.721,100.3056,0.08,1.438,82.4,0,109.7,13.56,0.83,256.8
"2010-03-27 00:19:00",1797435,5.753,295.7,6.044,1.101,3.214,100.3056,0.08,1.425,82.5,0,109.6,13.56,0.83,257.7
"2010-03-27 00:19:30",1797436,6.106,299,4.635,0.922,4.478,100.2963,0.056,1.427,82.6,0,109.7,13.56,0.81,261.0
"2010-03-27 00:20:00",1797437,5.79,299.1,6.204,1.158,3.961,100.2886,0.036,1.37,82.7,0,109.6,13.56,0.79,261.1
"2010-03-27 00:20:30",1797438,5.605,300.5,5.873,1.227,3.262,100.2784,0.01,1.346,82.7,0,109.6,13.56,0.76,262.5
"2010-03-27 00:21:00",1797439,5.156,299.9,5.757,1.225,2.549,100.2716,-0.007,1.362,82.9,0,109.6,13.56,0.74,261.9
"2010-03-27 00:21:30",1797440,6.9,305.8,5.039,1.08,4.163,100.2716,-0.007,1.341,82.9,0,109.6,13.56,0.74,267.8
"2010-03-27 00:22:00",1797441,6.412,302.5,6.274,1.116,3.816,100.2716,-0.007,1.374,83.1,0,109.6,13.56,0.74,264.5
"2010-03-27 00:22:30",1797442,6.158,303.4,5.606,1.106,4.505,100.2716,-0.007,1.383,83.2,0,109.6,13.56,0.74,265.4
"2010-03-27 00:23:00",1797443,6.005,304.4,5.912,1.072,4.649,100.262,-0.032,1.34,83.2,0,109.6,13.56,0.72,266.4
"2010-03-27 00:23:30",1797444,5.637,302.7,5.622,1.182,3.612,100.253,-0.055,1.236,83.2,0,109.6,13.56,0.70,264.7
"2010-03-27 00:24:00",1797445,4.45,298.6,5.032,0.99,2.281,100.2417,-0.083,1.181,83.2,0,109.6,13.57,0.67,260.6
"2010-03-27 00:24:30",1797446,5.267,302.7,6.277,1.203,3.552,100.238,-0.093,1.286,83.4,0,109.6,13.57,0.66,264.7
"2010-03-27 00:25:00",1797447,5.304,304.4,4.088,1.065,4.724,100.2377,-0.094,1.313,83.4,0,109.7,13.57,0.66,266.4
"2010-03-27 00:25:30",1797448,5.424,304.4,4.801,1.044,4.683,100.2377,-0.094,1.274,83.5,0,109.6,13.57,0.66,266.4
"2010-03-27 00:26:00",1797449,5.05,303.7,6.154,1.183,3.612,100.2377,-0.094,1.238,83.5,0,109.6,13.57,0.66,265.7
"2010-03-27 00:26:30",1797450,4.044,299.2,5.223,0.983,2.26,100.238,-0.093,1.173,83.4,0,109.6,13.57,0.66,261.2
"2010-03-27 00:27:00",1797451,5.069,303.5,6.139,1.2,3.815,100.238,-0.093,1.272,83.5,0,109.6,13.57,0.66,265.5
"2010-03-27 00:27:30",1797452,4.563,301.6,5.848,1.178,2.883,100.238,-0.093,1.243,83.6,0,109.6,13.57,0.66,263.6
"2010-03-27 00:28:00",1797453,6.044,307.1,3.792,0.638,4.979,100.2377,-0.094,1.271,83.6,0,109.6,13.57,0.66,269.1
"2010-03-27 00:28:30",1797454,5.557,302.8,6.031,1.091,4.368,100.2397,-0.088,1.276,83.6,0,109.6,13.57,0.66,264.8
"2010-03-27 00:29:00",1797455,4.794,303.6,6,1.221,4.098,100.24,-0.088,1.224,83.6,0,109.6,13.57,0.66,265.6
"2010-03-27 00:29:30",1797456,3.924,299.7,6.008,1.119,2.644,100.2411,-0.085,1.211,83.7,0,109.6,13.57,0.67,261.7
"2010-03-27 00:30:00",1797457,4.45,304,8.86,1.321,3.478,100.2391,-0.09,1.094,83.5,0,109.6,13.57,0.66,266.0
"2010-03-27 00:30:30",1797458,3.277,302.4,4.968,0.927,2.04,100.2408,-0.086,1.207,83.6,0,109.6,13.58,0.67,264.4
"2010-03-27 00:31:00",1797459,4.977,309.8,5.397,0.944,4.823,100.2428,-0.081,1.188,83.6,0,109.6,13.58,0.67,271.8
"2010-03-27 00:31:30",1797460,4.723,307.8,5.623,0.956,4.955,100.2417,-0.083,1.231,83.7,0,109.6,13.58,0.67,269.8
"2010-03-27 00:32:00",1797461,4.576,307.4,6.904,1.179,3.882,100.2425,-0.081,1.163,83.6,0,109.6,13.58,0.67,269.4
"2010-03-27 00:32:30",1797462,4.048,296.4,5.554,1.192,3.099,100.2436,-0.078,1.063,83.5,0,109.6,13.58,0.67,258.4
"2010-03-27 00:33:00",1797463,3.983,299.3,6.651,1.291,3,100.2451,-0.075,1.23,83.6,0,109.6,13.58,0.68,261.3
"2010-03-27 00:33:30",1797464,4.216,296.6,6.095,1.228,2.654,100.2462,-0.072,1.054,83.4,0,109.6,13.58,0.68,258.6
"2010-03-27 00:34:00",1797465,4.428,304.7,8.47,1.276,3.856,100.2482,-0.067,1.272,83.6,0,109.6,13.58,0.69,266.7
"2010-03-27 00:34:30",1797466,4.968,304.1,6.543,1.026,4.696,100.2496,-0.063,1.267,83.6,0,109.6,13.58,0.69,266.1
"2010-03-27 00:35:00",1797467,5.144,307.7,5.359,1.103,4.618,100.2493,-0.064,1.253,83.6,0,109.6,13.58,0.69,269.7
"2010-03-27 00:35:30",1797468,5.062,304.6,5.62,1.324,3.666,100.2499,-0.062,1.169,83.5,0,109.6,13.57,0.69,266.6
"2010-03-27 00:36:00",1797469,5.042,303.1,6.033,1.09,3.1,100.2507,-0.06,1.14,83.4,0,109.6,13.57,0.69,265.1
"2010-03-27 00:36:30",1797470,4.105,298.9,6.332,1.061,3.19,100.2527,-0.055,1.237,83.5,0,109.6,13.57,0.70,260.9
"2010-03-27 00:37:00",1797471,5.395,310.2,3.427,0.75,5.33,100.2544,-0.051,1.29,83.5,0,109.6,13.57,0.70,272.2
"2010-03-27 00:37:30",1797472,4.377,304.6,5.377,1.207,4.381,100.255,-0.049,1.251,83.4,0,109.6,13.57,0.70,266.6
"2010-03-27 00:38:00",1797473,4.083,302.8,9.44,1.212,3.995,100.2578,-0.042,1.184,83.3,0,109.6,13.57,0.71,264.8
"2010-03-27 00:38:30",1797474,3.902,299.9,8.45,1.269,3.388,100.2567,-0.045,1.19,83.2,0,109.6,13.57,0.71,261.9
"2010-03-27 00:39:00",1797475,3.263,294.8,4.88,0.577,1.307,100.2564,-0.046,1.113,83.1,0,109.6,13.61,0.71,256.8
"2010-03-27 00:39:30",1797476,4.101,299.3,5.959,1.188,3.455,100.2592,-0.039,1.222,83.2,0,109.6,13.58,0.71,261.3
"2010-03-27 00:40:00",1797477,5.646,304.9,5.383,0.677,5.228,100.259,-0.039,1.298,83.2,0,109.6,13.58,0.71,266.9
"2010-03-27 00:40:30",1797478,5.045,302.5,5.118,1.069,5.149,100.2624,-0.031,1.3,83.1,0,109.6,13.58,0.72,264.5
"2010-03-27 00:41:00",1797479,4.806,304.3,6.558,1.231,4.321,100.2655,-0.023,1.277,83,0,109.6,13.59,0.73,266.3
"2010-03-27 00:41:30",1797480,3.996,300.6,3.319,0.8,1.866,100.2711,-0.008,1.181,82.9,0,109.6,13.59,0.74,262.6
"2010-03-27 00:42:00",1797481,4.975,305.6,4.807,1.101,3.781,100.276,0.004,1.11,82.8,0,109.6,13.59,0.76,267.6
"2010-03-27 00:42:30",1797482,4.054,297.3,5.837,1.197,2.461,100.281,0.017,1.139,82.7,0,109.6,13.59,0.77,259.3
"2010-03-27 00:43:00",1797483,5.279,305.1,5.269,0.875,5.343,100.2864,0.031,1.322,82.8,0,109.6,13.59,0.78,267.1
"2010-03-27 00:43:30",1797484,5.108,304.2,5.11,1.083,5.036,100.2904,0.041,1.318,82.7,0,109.6,13.59,0.79,266.2
"2010-03-27 00:44:00",1797485,4.979,305.7,6.166,1.125,4.841,100.2955,0.054,1.262,82.6,0,109.6,13.59,0.81,267.7
"2010-03-27 00:44:30",1797486,3.506,300.9,4.802,0.816,2.145,100.2978,0.06,1.193,82.5,0,109.6,13.59,0.81,262.9
"2010-03-27 00:45:00",1797487,5.84,307.7,5.7,1.112,4.376,100.2986,0.062,1.181,82.4,0,109.6,13.59,0.81,269.7
"2010-03-27 00:45:30",1797488,4.973,305.8,7.917,1.204,3.447,100.2983,0.061,1.235,82.4,0,109.6,13.59,0.81,267.8
"2010-03-27 00:46:00",1797489,6.149,309.5,4.521,0.61,5.996,100.2989,0.062,1.38,82.4,0,109.6,13.59,0.81,271.5
"2010-03-27 00:46:30",1797490,5.535,308.3,4.633,0.918,5.583,100.3003,0.066,1.337,82.2,0,109.6,13.59,0.82,270.3
"2010-03-27 00:47:00",1797491,4.499,308.4,5.968,1.168,4.905,100.3017,0.07,1.335,82.2,0,109.6,13.59,0.82,270.4
"2010-03-27 00:47:30",1797492,3.189,310.6,3.843,1.361,2.742,100.3034,0.074,1.109,81.8,0,109.6,13.59,0.83,272.6
"2010-03-27 00:48:00",1797493,1.915,311.6,1.966,0.093,1.606,100.3034,0.074,1.121,81.6,0,109.6,13.62,0.83,273.6
"2010-03-27 00:48:30",1797494,3.122,315.4,5.459,1.362,2.979,100.304,0.076,1.207,81.5,0,109.6,13.59,0.83,277.4
"2010-03-27 00:49:00",1797495,4.242,318.2,6.004,1.197,5.243,100.3063,0.081,1.365,81.5,0,109.6,13.59,0.83,280.2
"2010-03-27 00:49:30",1797496,4.61,317.3,5.456,1.075,5.624,100.3159,0.106,1.379,81.4,0,109.6,13.59,0.86,279.3
"2010-03-27 00:50:00",1797497,4.956,312.9,6.754,1.104,5.091,100.3204,0.117,1.314,81.1,0,109.6,13.59,0.87,274.9
"2010-03-27 00:50:30",1797498,4.276,312.3,7.206,1.087,2.76,100.3283,0.138,1.205,80.8,0,109.6,13.59,0.89,274.3
"2010-03-27 00:51:00",1797499,3.828,303.7,3.537,0.197,1.138,100.336,0.157,1.238,80.7,0,109.6,13.62,0.91,265.7
"2010-03-27 00:51:30",1797500,5.12,307.3,6.919,1.265,3.716,100.338,0.162,1.294,80.6,0,109.6,13.59,0.91,269.3
"2010-03-27 00:52:00",1797501,5.867,315.5,6.709,0.89,5.746,100.3382,0.163,1.462,80.6,0,109.6,13.59,0.92,277.5
"2010-03-27 00:52:30",1797502,5.618,318.2,4.343,0.737,6.156,100.3388,0.164,1.429,80.5,0,109.6,13.59,0.92,280.2
"2010-03-27 00:53:00",1797503,5.068,311.7,6.534,1.347,4.393,100.3385,0.164,1.435,80.4,0,109.6,13.58,0.92,273.7
"2010-03-27 00:53:30",1797504,4.055,311.3,5.074,1.055,2.714,100.3408,0.169,1.348,80.2,0,109.6,13.58,0.92,273.3
"2010-03-27 00:54:00",1797505,4.145,308,5.798,0.901,2.684,100.3535,0.202,1.294,80.1,0,109.6,13.58,0.95,270.0
"2010-03-27 00:54:30",1797506,5.378,311.6,6.339,1.151,4.14,100.3615,0.222,1.423,80.1,0,109.6,13.58,0.97,273.6
"2010-03-27 00:55:00",1797507,6.271,315.4,3.837,0.868,5.858,100.3685,0.24,1.484,80.1,0,109.6,13.59,0.99,277.4
"2010-03-27 00:55:30",1797508,6.257,308.1,6.338,1.003,6.003,100.3731,0.252,1.545,80.1,0,109.6,13.59,1.00,270.1
"2010-03-27 00:56:00",1797509,5.671,305.7,5.604,1.058,5.085,100.3734,0.252,1.423,79.9,0,109.7,13.58,1.01,267.7
"2010-03-27 00:56:30",1797510,5.782,309.6,6.563,1.149,4.764,100.3736,0.253,1.476,79.85,0,109.6,13.59,1.01,271.6
"2010-03-27 00:57:00",1797511,4.415,304.5,6.466,0.847,2.423,100.3736,0.253,1.367,79.7,0,109.6,13.59,1.01,266.5
"2010-03-27 00:57:30",1797512,6.007,310.2,6.252,0.96,5.009,100.3745,0.255,1.516,79.77,0,109.6,13.59,1.01,272.2
"2010-03-27 00:58:00",1797513,6.059,312.4,6.421,0.988,5.666,100.3841,0.28,1.534,79.68,0,109.6,13.59,1.03,274.4
"2010-03-27 00:58:30",1797514,5.996,310.9,6.59,1.084,5.425,100.3881,0.29,1.527,79.62,0,109.6,13.59,1.04,272.9
"2010-03-27 00:59:00",1797515,5.886,324.5,8.41,0.984,5.547,100.3889,0.292,1.551,79.48,0,109.6,13.59,1.05,286.5
"2010-03-27 00:59:30",1797516,3.615,314.1,8.9,1.11,2.657,100.3991,0.318,1.319,78.96,0,109.6,13.59,1.07,276.1
"2010-03-27 01:00:00",1797517,4.32,293.7,9.18,1.733,4.186,100.4048,0.333,1.572,78.86,0,109.6,13.59,1.09,255.7
"2010-03-27 01:00:30",1797518,5.589,301.8,9.4,1.179,4.862,100.4076,0.34,1.508,78.48,0,109.6,13.59,1.09,263.8
"2010-03-27 01:01:00",1797519,5.026,313.2,7.136,1.207,4.632,100.4076,0.34,1.512,78.4,0,109.6,13.59,1.09,275.2
"2010-03-27 01:01:30",1797520,4.767,309.5,7.181,1.015,5.709,100.4076,0.34,1.593,78.37,0,109.6,13.59,1.09,271.5
"2010-03-27 01:02:00",1797521,4.338,291.8,8.6,1.213,4.384,100.4076,0.34,1.521,78.05,0,109.6,13.59,1.09,253.8
"2010-03-27 01:02:30",1797522,4.876,304.1,9.78,1.682,4.065,100.4101,0.346,1.555,77.84,0,109.6,13.59,1.10,266.1
"2010-03-27 01:03:00",1797523,4.576,302.8,5.279,0.955,2.789,100.4226,0.378,1.492,77.63,0,109.6,13.59,1.13,264.8
"2010-03-27 01:03:30",1797524,5.327,308.4,7.213,1.273,4.894,100.4342,0.408,1.635,77.69,0,109.7,13.6,1.16,270.4
"2010-03-27 01:04:00",1797525,5.939,305.9,4.935,0.894,6.014,100.4407,0.424,1.611,77.55,0,109.7,13.6,1.18,267.9
"2010-03-27 01:04:30",1797526,6.068,305.8,7.099,1.111,5.708,100.4416,0.426,1.641,77.47,0,109.6,13.6,1.18,267.8
"2010-03-27 01:05:00",1797527,5.124,299.8,5.761,1.244,5.36,100.4416,0.426,1.61,77.28,0,109.7,13.59,1.18,261.8
"2010-03-27 01:05:30",1797528,4.765,299.3,8.26,1.312,3.649,100.4416,0.426,1.473,76.9,0,109.6,13.59,1.18,261.3
"2010-03-27 01:06:00",1797529,4.284,305,10.43,1.215,3.647,100.4424,0.429,1.637,76.85,0,109.6,13.59,1.18,267.0
"2010-03-27 01:06:30",1797530,3.773,298.2,9.67,1.512,4.322,100.454,0.458,1.656,76.65,0,109.6,13.6,1.21,260.2
"2010-03-27 01:07:00",1797531,4.878,309,9.25,1.113,5.948,100.4603,0.474,1.697,76.32,0,109.7,13.6,1.23,271.0
"2010-03-27 01:07:30",1797532,5.016,303.3,7.808,1.21,5.049,100.4699,0.499,1.708,76.02,0,109.6,13.59,1.25,265.3
"2010-03-27 01:08:00",1797533,5.519,310.9,8.01,1.223,5.1,100.475,0.512,1.726,75.81,0,109.7,13.59,1.27,272.9
"2010-03-27 01:08:30",1797534,5.313,306,6.151,1.224,5.169,100.4755,0.513,1.679,75.68,0,109.6,13.59,1.27,268.0
"2010-03-27 01:09:00",1797535,5.226,309.3,6.311,1.15,4.693,100.4755,0.513,1.709,75.65,0,109.6,13.59,1.27,271.3
"2010-03-27 01:09:30",1797536,4.607,305.9,6.483,1.49,3.899,100.4772,0.517,1.621,75.28,0,109.6,13.59,1.27,267.9
"2010-03-27 01:10:00",1797537,5.959,309.5,6.746,1.273,5.685,100.4908,0.552,1.792,75.03,0,109.6,13.59,1.31,271.5
"2010-03-27 01:10:30",1797538,5.169,308.6,6.511,1.092,5.647,100.5027,0.582,1.724,74.78,0,109.6,13.59,1.34,270.6
"2010-03-27 01:11:00",1797539,5.646,313.6,8.57,1.117,5.75,100.5092,0.599,1.84,74.77,0,109.6,13.59,1.35,275.6
"2010-03-27 01:11:30",1797540,5,303.7,6.025,1.242,3.979,100.5095,0.6,1.763,74.63,0,109.6,13.59,1.35,265.7
"2010-03-27 01:12:00",1797541,5.969,305.6,6.606,1.24,4.574,100.5098,0.6,1.817,74.81,0,109.6,13.59,1.35,267.6
"2010-03-27 01:12:30",1797542,5.929,309.2,5.693,1.229,5.488,100.5152,0.614,1.777,74.89,0,109.6,13.59,1.37,271.2
"2010-03-27 01:13:00",1797543,6.548,308.8,5.028,0.7,6.542,100.529,0.649,1.856,75.08,0,109.6,13.59,1.40,270.8
"2010-03-27 01:13:30",1797544,6.072,307.2,7.259,1.255,5.209,100.5398,0.677,1.884,75.14,0,109.6,13.6,1.43,269.2
"2010-03-27 01:14:00",1797545,6.78,311.1,6.645,0.887,5.859,100.5435,0.686,1.891,75.14,0,109.6,13.6,1.44,273.1
"2010-03-27 01:14:30",1797546,6.088,306.2,5.488,1.238,4.737,100.5435,0.686,1.94,75.19,0,109.6,13.6,1.44,268.2
"2010-03-27 01:15:00",1797547,6.826,307.7,5.351,1.176,5.44,100.5435,0.686,1.911,75.08,0,109.6,13.6,1.44,269.7
"2010-03-27 01:15:30",1797548,6.568,310.6,7.98,1.02,5.549,100.5435,0.686,1.876,74.98,0,109.6,13.59,1.44,272.6
"2010-03-27 01:16:00",1797549,5.886,314.2,6.274,1.138,6.062,100.5438,0.687,1.993,74.96,0,109.6,13.6,1.44,276.2
"2010-03-27 01:16:30",1797550,5.437,311.8,5.62,1.076,6.016,100.5457,0.692,1.931,74.78,0,109.6,13.6,1.45,273.8
"2010-03-27 01:17:00",1797551,5.699,307.7,6.525,1.131,5.821,100.5545,0.714,1.942,74.66,0,109.6,13.6,1.47,269.7
"2010-03-27 01:17:30",1797552,5.096,299.4,7.691,1.443,4.132,100.5656,0.743,1.819,74.39,0,109.6,13.6,1.50,261.4
"2010-03-27 01:18:00",1797553,5.351,303.9,7.167,1.176,4.722,100.5732,0.762,1.87,74.31,0,109.6,13.6,1.52,265.9
"2010-03-27 01:18:30",1797554,5.19,302.8,6.907,1.209,5.017,100.5766,0.771,1.97,74.24,0,109.6,13.6,1.53,264.8
"2010-03-27 01:19:00",1797555,5.554,306.1,6.791,1.09,5.76,100.5774,0.773,2.021,74.16,0,109.6,13.6,1.53,268.1
"2010-03-27 01:19:30",1797556,5.925,304.8,5.887,1.188,5.622,100.5774,0.773,1.98,74.06,0,109.6,13.6,1.53,266.8
"2010-03-27 01:20:00",1797557,5.316,302,5.908,1.23,4.014,100.5774,0.773,1.985,74.05,0,109.6,13.6,1.53,264.0
"2010-03-27 01:20:30",1797558,5.503,305.9,6.8,1.216,4.874,100.5777,0.774,1.994,74.03,0,109.6,13.6,1.53,267.9
"2010-03-27 01:21:00",1797559,4.488,300.2,4.8,1.121,3.275,100.5791,0.777,1.966,73.92,0,109.6,13.6,1.53,262.2
"2010-03-27 01:21:30",1797560,6.016,306,6.785,1.004,5.721,100.5834,0.788,2.026,73.85,0,109.6,13.6,1.54,268.0
"2010-03-27 01:22:00",1797561,5.911,307.6,6.318,1.2,5.944,100.5902,0.805,2.028,73.85,0,109.6,13.6,1.56,269.6
"2010-03-27 01:22:30",1797562,6.849,311.8,4.8,0.757,6.492,100.591,0.808,2.06,73.78,0,109.7,13.6,1.56,273.8
"2010-03-27 01:23:00",1797563,5.743,307.7,6.78,1.301,5.136,100.5978,0.825,2.084,73.77,0,109.6,13.6,1.58,269.7
"2010-03-27 01:23:30",1797564,5.449,306.3,4.412,1.122,5.429,100.6038,0.84,2.039,73.66,0,109.6,13.6,1.60,268.3
"2010-03-27 01:24:00",1797565,4.067,301.4,2.341,0.864,2.473,100.6091,0.854,1.909,73.5,0,109.6,13.6,1.61,263.4
"2010-03-27 01:24:30",1797566,5.475,304.9,5.681,1.044,5.434,100.6114,0.86,2.03,73.52,0,109.6,13.59,1.61,266.9
"2010-03-27 01:25:00",1797567,5.233,303.6,7.529,1.172,5.968,100.6114,0.86,2.076,73.42,0,109.7,13.6,1.61,265.6
"2010-03-27 01:25:30",1797568,5.607,304.8,6.015,1.103,6.185,100.6114,0.86,2.142,73.34,0,109.7,13.59,1.61,266.8
"2010-03-27 01:26:00",1797569,4.866,302.5,6.304,1.231,4.593,100.6114,0.86,2.091,73.16,0,109.6,13.59,1.61,264.5
"2010-03-27 01:26:30",1797570,5.522,307.3,5.483,1.074,5.146,100.6114,0.86,2.005,73.02,0,109.6,13.59,1.61,269.3
"2010-03-27 01:27:00",1797571,4.382,303.4,5.774,0.991,3.136,100.6114,0.86,2.056,73.01,0,109.6,13.59,1.61,265.4
"2010-03-27 01:27:30",1797572,5.456,307,6.452,1.169,5.251,100.6114,0.86,2.061,72.98,0,109.6,13.59,1.61,269.0
"2010-03-27 01:28:00",1797573,5.35,305.5,5.188,1.196,5.579,100.6114,0.86,2.163,72.99,0,109.6,13.59,1.61,267.5
"2010-03-27 01:28:30",1797574,5.513,306.2,5.502,1.014,6.038,100.6114,0.86,2.128,72.86,0,109.6,13.6,1.61,268.2
"2010-03-27 01:29:00",1797575,4.2,298.8,6.233,0.978,3.347,100.6114,0.86,2.088,72.69,0,109.6,13.6,1.61,260.8
"2010-03-27 01:29:30",1797576,4.401,300.5,4.989,0.927,3.049,100.6114,0.86,2.094,72.54,0,109.6,13.6,1.61,262.5
"2010-03-27 01:30:00",1797577,5.394,305.8,6.903,1.117,4.905,100.6137,0.865,2.025,72.37,0,109.6,13.6,1.62,267.8
"2010-03-27 01:30:30",1797578,5.623,303.7,6.723,1.043,6.075,100.6205,0.883,2.166,72.45,0,109.6,13.6,1.64,265.7
"2010-03-27 01:31:00",1797579,5.287,306.9,6.074,1.114,5.963,100.6258,0.896,2.166,72.38,0,109.6,13.6,1.65,268.9
"2010-03-27 01:31:30",1797580,4.975,308.1,9.24,1.106,5.61,100.6312,0.91,2.175,72.23,0,109.6,13.6,1.67,270.1
"2010-03-27 01:32:00",1797581,4.468,298.8,6.281,1.118,4.015,100.6346,0.919,2.079,72.06,0,109.6,13.6,1.67,260.8
"2010-03-27 01:32:30",1797582,4.265,301.5,5.859,1.108,3.731,100.6397,0.932,2.116,72.05,0,109.6,13.6,1.69,263.5
"2010-03-27 01:33:00",1797583,5.13,309,6.461,1.123,4.949,100.6434,0.941,2.093,71.96,0,109.6,13.6,1.70,271.0
"2010-03-27 01:33:30",1797584,5.145,307.4,7.281,1.075,6.317,100.6454,0.946,2.212,71.98,0,109.6,13.6,1.70,269.4
"2010-03-27 01:34:00",1797585,4.4,309.6,9.03,1.085,5.827,100.6454,0.946,2.199,71.8,0,109.6,13.6,1.70,271.6
"2010-03-27 01:34:30",1797586,4.442,306.3,7.495,1.237,5.654,100.6454,0.946,2.193,71.57,0,109.6,13.6,1.70,268.3
"2010-03-27 01:35:00",1797587,3.578,302,4.939,1.058,2.639,100.6454,0.946,1.975,71.16,0,109.6,13.6,1.70,264.0
"2010-03-27 01:35:30",1797588,4.276,303,6.299,1.361,4.396,100.6454,0.946,2.097,71.15,0,109.6,13.6,1.70,265.0
"2010-03-27 01:36:00",1797589,4.357,304.1,8.07,1.252,5.155,100.6454,0.946,2.136,71.06,0,109.6,13.61,1.70,266.1
"2010-03-27 01:36:30",1797590,4.956,311.3,5.545,1.137,5.92,100.6459,0.948,2.284,71.04,0,109.6,13.61,1.70,273.3
"2010-03-27 01:37:00",1797591,4.257,312.5,7.093,1.186,5.601,100.6485,0.954,2.205,70.83,0,109.6,13.6,1.71,274.5
"2010-03-27 01:37:30",1797592,3.543,309.2,8.57,1.18,4.724,100.6573,0.976,2.148,70.6,0,109.6,13.6,1.73,271.2
"2010-03-27 01:38:00",1797593,2.679,305.1,6.225,0.931,3.104,100.6604,0.984,2.133,70.46,0,109.6,13.6,1.74,267.1
"2010-03-27 01:38:30",1797594,3.445,308,7.242,1.286,4.159,100.6626,0.99,2.087,70.26,0,109.6,13.61,1.75,270.0
"2010-03-27 01:39:00",1797595,3.575,306.6,8.43,1.403,4.558,100.6692,1.007,2.164,70.25,0,109.6,13.61,1.76,268.6
"2010-03-27 01:39:30",1797596,4.079,309.2,4.921,1.21,5.834,100.6765,1.026,2.322,70.32,0,109.6,13.61,1.78,271.2
"2010-03-27 01:40:00",1797597,4.288,305.9,6.712,1.17,5.675,100.6788,1.031,2.265,70.14,0,109.6,13.61,1.79,267.9
"2010-03-27 01:40:30",1797598,3.906,306.8,6.463,1.169,4.888,100.6793,1.033,2.238,70.04,0,109.6,13.6,1.79,268.8
"2010-03-27 01:41:00",1797599,3.723,302.6,5.89,1.298,4.198,100.6799,1.034,2.203,69.96,0,109.6,13.6,1.79,264.6
"2010-03-27 01:41:30",1797600,3.276,295.9,7.462,1.148,3.177,100.6799,1.034,2.056,69.75,0,109.6,13.6,1.79,257.9
"2010-03-27 01:42:00",1797601,3.566,303.3,6.337,1.135,4.447,100.6802,1.035,2.239,69.8,0,109.6,13.6,1.79,265.3
"2010-03-27 01:42:30",1797602,3.88,306.2,7.29,1.23,5.579,100.6793,1.033,2.337,69.84,0,109.6,13.6,1.79,268.2
"2010-03-27 01:43:00",1797603,4.186,311.4,9.27,1.257,5.614,100.6799,1.034,2.349,69.79,0,109.6,13.6,1.79,273.4
"2010-03-27 01:43:30",1797604,4.266,304.7,8.1,1.246,5.429,100.6796,1.034,2.314,69.73,0,109.6,13.6,1.79,266.7
"2010-03-27 01:44:00",1797605,3.718,307.6,7.668,0.967,3.808,100.6793,1.033,2.21,69.61,0,109.6,13.6,1.79,269.6
"2010-03-27 01:44:30",1797606,3.38,304.2,5.417,1.109,2.743,100.6796,1.033,2.105,69.48,0,109.6,13.6,1.79,266.2
"2010-03-27 01:45:00",1797607,3.626,310.8,8.43,1.276,3.708,100.683,1.042,2.275,69.63,0,109.6,13.6,1.80,272.8
"2010-03-27 01:45:30",1797608,4.7,313.5,5.746,1.104,6.29,100.687,1.052,2.39,69.74,0,109.6,13.61,1.81,275.5
"2010-03-27 01:46:00",1797609,4.035,314.2,8.52,1.12,6.228,100.698,1.08,2.356,69.7,0,109.6,13.61,1.84,276.2
"2010-03-27 01:46:30",1797610,3.696,317.3,7.629,1.234,5.063,100.7068,1.103,2.297,69.55,0,109.6,13.61,1.86,279.3
"2010-03-27 01:47:00",1797611,2.829,311.9,6.339,1.108,4.092,100.7113,1.114,2.268,69.36,0,109.6,13.61,1.87,273.9
"2010-03-27 01:47:30",1797612,1.839,303.5,6.279,0.68,2.3,100.7139,1.121,2.127,69.02,0,109.6,13.61,1.88,265.5
"2010-03-27 01:48:00",1797613,2.089,300.1,3.467,0.14,2.369,100.7142,1.122,2.271,68.98,0,109.6,13.64,1.88,262.1